TIME,DELAY(SENSOR),PRES,OXYGEN,RAWTEMP,T(OPTODE),TCPHASE,FLUOR,BETA(BETA700),BETA(BETA412),BETA(BETA440),CDOM,C(CSC),ED(ED412.40),ED(ED444.00),ED(ED489.70),ED(ED554.30),LU(LU411.80),LU(LU443.40),LU(LU489.60),LU(LU554.10),COMP,TILTX,TILTY,CHECK
1343273891,5810,894.7999877929688000,44.5498809814453100,660.6329956054688000,4.6071319580078125,54.3274116516113300,53,100,87,79,81,15356,2147760374,2147420717,2148005970,2147873133,2147641563,2147059620,2148263296,2147201225,1593,4,13,39673
1343277487,5807,961.4500122070312000,50.2341384887695300,669.5800170898438000,4.3120708465576170,53.6305809020996100,52,97,88,79,80,15359,2147758418,2147420653,2148006134,2147873444,2147646592,2147059209,2148258733,2147201170,2335,4,13,44972
1343281087,5810,979.7899780273438000,50.1012382507324200,670.2891845703125000,4.2886409759521480,53.6626205444335940,53,98,89,79,80,15357,2147761709,2147421595,2148007643,2147873353,2147644946,2147058669,2148263213,2147196315,506,4,13,44497
1343284687,5809,992.4199829101562000,49.0272598266601560,670.2493286132812000,4.2899608612060550,53.8054885864257800,53,99,90,81,83,15355,2147762514,2147425106,2148007670,2147872777,2147646582,2147060882,2148260790,2147201389,3323,4,13,7664
1343288287,5812,994.0000000000000000,49.4501419067382800,670.2186889648438000,4.2909741401672360,53.7448081970214840,52,100,89,79,82,15356,2147761609,2147422080,2148008877,2147873572,2147643017,2147061348,2148264713,2147200594,94,5,13,7414
1343291887,5811,999.5300292968750000,48.2341690063476560,670.3175048828125000,4.2877078056335450,53.9170417785644500,52,97,84,78,81,15353,2147762185,2147419684,2148007213,2147878802,2147643776,2147052260,2148267136,2147202066,2909,5,13,4251
1343295487,5807,989.3699951171875000,47.7007904052734400,672.1292724609375000,4.2278351783752440,54.0147399902343750,53,99,90,80,81,15353,2147760667,2147421174,2148003858,2147875867,2147644205,2147057755,2148260114,2147197933,428,4,13,37910
1343299087,5808,985.0000000000000000,48.1738700866699200,673.6917724609375000,4.1761651039123535,53.9686203002929700,53,98,86,79,82,15355,2147759177,2147421595,2148007113,2147873252,2147645449,2147056886,2148256740,2147199277,116,5,13,28044
1343302687,5807,995.8300170898438000,48.1125488281250000,674.1334838867188000,4.1615557670593260,53.9818992614746100,53,98,86,78,82,15354,2147759341,2147420809,2148004964,2147876397,2147646573,2147061924,2148265069,2147199186,89,5,13,62588
1343306287,5810,995.5000000000000000,47.8983116149902340,673.2191772460938000,4.1917948722839355,54.0062294006347660,52,98,90,78,81,15352,2147757970,2147421979,2148008137,2147874331,2147642624,2147056685,2148260928,2147197577,470,4,13,5108
1343309887,5809,1000.7399902343750000,47.5385093688964840,672.8637695312500000,4.2035470008850100,54.0452003479003900,53,99,88,78,81,15354,2147760859,2147423268,2148007250,2147872658,2147644306,2147056347,2148260461,2147199616,627,5,13,22707
1343313487,5806,996.0900268554688000,47.6198081970214840,672.8552856445312000,4.2038288116455080,54.0356407165527340,52,100,87,80,82,15352,2147762002,2147421750,2148007460,2147876864,2147646061,2147060297,2148263332,2147198619,794,5,13,59937
1343317087,5809,998.1300048828125000,47.4748611450195300,672.5122070312500000,4.2151741981506350,54.0537910461425800,52,100,88,81,81,15354,2147758555,2147422171,2148010157,2147870985,2147647433,2147061494,2148263616,2147201097,438,4,13,749
1343320687,5808,1006.0700073242188000,47.8688583374023440,671.7183227539062000,4.2414212226867680,53.9880104064941400,53,97,87,80,82,15352,2147759963,2147421513,2148007734,2147875145,2147647122,2147063360,2148265124,2147203538,170,4,13,59595
1343324287,5809,1000.9899902343750000,47.6245689392089840,671.8867797851562000,4.2358469963073730,54.0269813537597660,52,100,86,78,82,15351,2147759881,2147420141,2148009654,2147875026,2147643876,2147059218,2148263817,2147199140,195,5,13,37257
1343327887,5812,1003.4199829101562000,47.7884902954101560,671.7830200195312000,4.2392811775207520,53.9969596862793000,53,100,88,79,81,15350,2147760996,2147419483,2148005019,2147876406,2147640941,2147056603,2148265664,2147197915,207,4,13,8557
1343331487,5809,1003.0900268554688000,47.7443618774414060,672.7996826171875000,4.2056689262390140,54.0155601501464840,52,99,84,80,81,15351,2147763958,2147422381,2148007323,2147874633,2147644845,2147057700,2148259273,2147200100,2976,4,13,62668
1343335087,5807,1000.7100219726562000,47.5367813110351560,673.2661743164062000,4.1902427673339840,54.0556716918945300,53,99,91,79,81,15353,2147762889,2147419629,2148006208,2147873298,2147642532,2147060864,2148263222,2147200201,382,4,13,61483
1343338687,5809,990.0999755859375000,47.3902893066406250,673.6633911132812000,4.1771049499511720,54.0791015625000000,53,100,88,79,82,15352,2147762605,2147419757,2148004845,2147874514,2147643593,2147063680,2148262820,2147195858,647,4,13,16582
1343342287,5807,999.4099731445312000,47.7072792053222660,675.5208129882812000,4.1156539916992190,54.0618400573730500,53,101,87,79,83,15347,2147760621,2147419849,2148008347,2147871835,2147643373,2147055835,2148259702,2147196736,493,4,13,63110
1343345887,5803,995.5200195312500000,47.4789009094238300,674.9301757812500000,4.1351990699768070,54.0833396911621100,53,100,88,81,83,15348,2147764745,2147421778,2148003510,2147872612,2147647542,2147057837,2148266770,2147196864,755,5,13,3856
1343349487,5809,996.2899780273438000,47.2118606567382800,674.8483886718750000,4.1379032135009770,54.1189689636230500,53,98,86,79,82,15350,2147760100,2147418614,2148009398,2147875126,2147645915,2147060644,2148264365,2147198080,196,4,13,9308
1343353087,5806,996.7399902343750000,48.3625717163085940,675.5476074218750000,4.1147651672363280,53.9671096801757800,52,99,84,80,81,15324,2147762386,2147417645,2148007405,2147874953,2147645915,2147056960,2148260882,2147199990,3233,5,13,43941
1343356687,5809,999.9000244140625000,48.2075386047363300,674.9561157226562000,4.1343398094177250,53.9791908264160160,53,98,89,79,82,15342,2147761353,2147419858,2148009956,2147873097,2147641618,2147058148,2148262966,2147198061,2992,4,13,50778
1343360287,5810,1001.0999755859375000,47.2059707641601560,674.5209960937500000,4.1487350463867190,54.1194190979003900,53,98,89,79,82,15342,2147760896,2147418861,2148006573,2147872064,2147641618,2147053266,2148263451,2147193078,324,5,13,33534
1343363887,5804,1007.3800048828125000,47.4256896972656250,673.8999023437500000,4.1692829132080080,54.0757904052734400,53,98,84,79,81,15344,2147761197,2147418907,2148008630,2147873664,2147647003,2147055616,2148262482,2147197750,3551,4,13,48578
1343367487,5809,1011.7800292968750000,47.3766212463378900,672.2536010742188000,4.2237238883972170,54.0641212463378900,53,98,91,79,84,15343,2147758326,2147423305,2148006665,2147870802,2147644160,2147065490,2148263049,2147198866,3379,5,13,21285
1343371087,5811,1012.6400146484375000,46.4712181091308600,671.9451293945312000,4.2339210510253910,54.1907310485839840,53,97,88,80,81,15342,2147758208,2147418779,2148007250,2147872914,2147643501,2147064347,2148263222,2147198070,92,5,13,27972
1343374687,5807,1013.0300292968750000,46.4494209289550800,671.9882812500000000,4.2324919700622560,54.1936111450195300,51,97,87,79,82,15344,2147762678,2147416777,2148007250,2147873252,2147642157,2147057225,2148260251,2147200429,127,5,13,35262
1343378287,5810,1011.1699829101562000,47.0253105163574200,672.0637207031250000,4.2300028800964355,54.1130714416503900,54,98,88,79,82,15345,2147761380,2147418806,2148004105,2147875794,2147645787,2147060288,2148259172,2147196827,106,5,13,10523
1343381887,5807,1004.3300170898438000,47.1394386291503900,674.2888793945312000,4.1564159393310550,54.1216812133789060,52,100,90,79,82,15344,2147760000,2147418560,2148006125,2147875465,2147640256,2147057234,2148257828,2147200438,2692,4,13,1696
1343385487,5807,999.1500244140625000,47.1241302490234400,674.7299804687500000,4.1418190002441410,54.1316604614257800,53,100,86,80,82,15343,2147763227,2147420891,2148010349,2147878747,2147643556,2147053403,2148259949,2147196178,238,5,13,56257
1343389087,5808,1007.7800292968750000,48.0237617492675800,674.9644775390625000,4.1340599060058590,54.0089302062988300,53,98,88,80,82,15339,2147761033,2147420736,2148007579,2147874413,2147644928,2147064064,2148257133,2147199360,3154,5,13,52635
1343392687,5806,1015.0900268554688000,47.3927116394043000,673.8798217773438000,4.1699490547180180,54.0806999206543000,52,99,89,79,82,15338,2147758528,2147418770,2148006363,2147874404,2147646372,2147059867,2148261366,2147199808,467,5,13,24591
1343396287,5806,997.1300048828125000,46.9226112365722660,674.5421142578125000,4.1480369567871090,54.1563491821289060,53,100,88,79,81,15342,2147760978,2147420114,2148005083,2147872603,2147642797,2147055689,2148262070,2147200859,3503,4,13,56821
1343399887,5807,1007.0000000000000000,47.3727912902832000,674.0789794921875000,4.1633591651916500,54.0908012390136700,52,99,89,79,81,15339,2147758336,2147420141,2148006125,2147871488,2147643922,2147056201,2148261202,2147201581,3345,4,13,7908
1343403487,5811,1001.0999755859375000,47.2648086547851560,674.6475219726562000,4.1445522308349610,54.1093406677246100,52,101,87,80,81,15338,2147758363,2147419181,2148006381,2147874422,2147644214,2147054710,2148263168,2147198720,3592,4,13,23329
1343407087,5810,1010.5300292968750000,47.8267211914062500,674.7042846679688000,4.1426720619201660,54.0298194885253900,52,98,90,79,82,15340,2147759442,2147420589,2148007908,2147870345,2147643830,2147054016,2148266029,2147200475,3188,4,13,16581
1343410687,5811,1002.9299926757812000,46.9530906677246100,673.7136230468750000,4.1754460334777830,54.1406898498535160,52,99,89,80,81,15339,2147760475,2147421110,2148007222,2147874651,2147644544,2147061824,2148266176,2147199049,590,4,13,5658
1343414287,5807,1006.1900024414062000,47.1792716979980500,674.5361938476562000,4.1482329368591310,54.1187705993652340,51,99,87,78,82,15340,2147759149,2147418093,2148006994,2147871798,2147643702,2147054985,2148261138,2147202230,637,4,13,26314
1343417887,5808,1015.7100219726562000,47.3202705383300800,673.0693969726562000,4.1967511177062990,54.0795783996582000,53,98,85,79,82,15336,2147761490,2147419026,2148009627,2147873243,2147643026,2147057536,2148257984,2147200649,2798,4,13,20080
1343418656,5808,1008.5800170898438000,47.1046905517578100,672.9691772460938000,4.2000641822814940,54.1124114990234400,53,100,88,79,82,15344,2147760896,2147419090,2148009673,2147874550,2147642550,2147061467,2148262427,2147199168,550,4,13,2915
